Weather History for Sheridan, WY

Change the Weather History Date:

Tuesday, December 11, 2012

  Actual Average Record
Temperature  
Mean Temperature 30 °F 23 °F  
Max Temperature 42 °F 35 °F 68 °F (1939)
Min Temperature 17 °F 11 °F -24 °F (1932)
Degree Days  
Heating Degree Days 35 42  
Month to date heating degree days 371 452  
Since 1 July heating degree days 2055 2330  
Cooling Degree Days 0 0  
Month to date cooling degree days 0 0  
Year to date cooling degree days 664 419  
Moisture  
Dew Point 17 °F    
Average Humidity 56    
Maximum Humidity 72    
Minimum Humidity 39    
Precipitation  
Precipitation 0.00 in 0.02 in 0.33 in (1916)
Month to date precipitation 0.29 0.22  
Year to date precipitation 9.32 13.82  
Sea Level Pressure  
Sea Level Pressure 29.76 in    
Wind  
Wind Speed 6 mph (SSW)    
Max Wind Speed 17 mph    
Max Gust Speed 20 mph    
Visibility 10 miles    
Events      
T = Trace of Precipitation, MM = Missing Value Source: NWS Daily Summary

Daily Weather History Graph

Daily Weather History Graph

Search for Another Location

Airport:

Trip Planner

Search our weather history database for the weather conditions in past years. The results will help you decide how hot, cold, wet, or windy it might be!

Date:

Astronomy

Dec. 11, 2012 Rise Set
Actual Time 7:35 AM MST 4:27 PM MST
Civil Twilight 7:02 AM MST 5:00 PM MST
Nautical Twilight 6:25 AM MST 5:37 PM MST
Astronomical Twilight 5:49 AM MST 6:13 PM MST
Moon 5:31 AM MST (12/11) 3:10 PM MST (12/11)
Length of Visible Light 9h 58m
Length of Day
8h 51m
Waning Crescent, 4% of the Moon is Illuminated
Dec 11
Waning Crescent
Dec 13
New
Dec 19
First Quarter
Dec 28
Full
Jan 4
Last Quarter

Hourly Weather History & Observations

Time (MST) Temp. Windchill Dew Point Humidity Pressure Visibility Wind Dir Wind Speed Gust Speed Precip Events Conditions
12:53 AM 19.9 °F 9.3 °F 9.0 °F 62% 30.00 in 10.0 mi West 9.2 mph - N/A   Clear
1:53 AM 21.0 °F 9.9 °F 9.0 °F 60% 29.99 in 10.0 mi WSW 10.4 mph - N/A   Clear
2:53 AM 19.9 °F 9.3 °F 9.0 °F 62% 29.97 in 10.0 mi WSW 9.2 mph - N/A   Clear
3:53 AM 17.1 °F - 7.0 °F 65% 29.97 in 10.0 mi Calm Calm - N/A   Clear
4:53 AM 21.0 °F - 9.0 °F 60% 29.95 in 10.0 mi Calm Calm - N/A   Mostly Cloudy
5:53 AM 21.0 °F 13.4 °F 14.0 °F 74% 29.94 in 10.0 mi SSW 5.8 mph - N/A   Overcast
6:53 AM 25.0 °F 16.3 °F 15.1 °F 66% 29.88 in 10.0 mi SSW 8.1 mph - N/A   Overcast
7:53 AM 27.0 °F 19.5 °F 17.1 °F 66% 29.88 in 10.0 mi South 6.9 mph - N/A   Overcast
8:53 AM 28.9 °F 23.9 °F 15.1 °F 56% 29.81 in 10.0 mi SSE 4.6 mph - N/A   Clear
9:53 AM 32.0 °F 26.4 °F 14.0 °F 48% 29.78 in 10.0 mi SE 5.8 mph - N/A   Clear
10:53 AM 33.1 °F 26.9 °F 16.0 °F 50% 29.74 in 10.0 mi SSE 6.9 mph - N/A   Clear
11:53 AM 36.0 °F 29.0 °F 19.9 °F 52% 29.71 in 10.0 mi South 9.2 mph - N/A   Overcast
12:53 PM 37.9 °F 32.1 °F 19.9 °F 48% 29.68 in 10.0 mi South 8.1 mph - N/A   Mostly Cloudy
1:53 PM 39.0 °F 34.0 °F 21.0 °F 49% 29.64 in 10.0 mi SSE 6.9 mph - N/A   Clear
2:53 PM 37.9 °F 32.7 °F 24.1 °F 57% 29.63 in 10.0 mi South 6.9 mph - N/A   Clear
3:53 PM 34.0 °F 28.0 °F 24.1 °F 67% 29.66 in 10.0 mi SW 6.9 mph - N/A   Clear
4:53 PM 34.0 °F - 19.9 °F 56% 29.63 in 10.0 mi Calm Calm - N/A   Partly Cloudy
5:53 PM 42.1 °F 34.9 °F 19.9 °F 41% 29.59 in 10.0 mi West 13.8 mph - N/A   Scattered Clouds
6:53 PM 34.0 °F 29.8 °F 19.9 °F 56% 29.62 in 10.0 mi NNE 4.6 mph - N/A   Partly Cloudy
7:53 PM 30.0 °F - 23.0 °F 75% 29.62 in 10.0 mi Calm Calm - N/A   Overcast
8:53 PM 35.1 °F 30.1 °F 21.9 °F 59% 29.60 in 10.0 mi NNW 5.8 mph - N/A   Overcast
9:53 PM 30.9 °F 25.2 °F 23.0 °F 72% 29.61 in 10.0 mi NNW 5.8 mph - N/A   Overcast
10:53 PM 30.0 °F - 23.0 °F 75% 29.63 in 10.0 mi Calm Calm - N/A   Overcast
11:53 PM 28.9 °F 23.9 °F 24.1 °F 82% 29.62 in 10.0 mi South 4.6 mph - N/A   Overcast